Content
SEND FEEDBACK

Daily
Averages
Monthly
Summary
Switzerland

GENEVA, SWITZERLAND


Home > Europe > Switzerland
Elevation: 1364 feet     Latitude: 46 15N     Longitude: 006 08E

WEATHER
 
SELECT A DAY
Number of Records: 313,363;   Date Range: 7/1/96 - 10/23/14
 
SHARE

PRINT THIS DATA

[ ← Previous Day ]
WEATHER ALMANAC - APRIL 6, 2013
[ Next Day → ]
[ °C ]   °F
Weather ElementAverageHighLow
Temperature47 °F54 °F (4:00 pm)42 °F (7:00 am)
Dewpoint34.3 °F39.2 °F (1:20 am)32 °F (4:50 pm)
Humidity59.3 %81 % (1:20 am)32 % (4:00 pm)
Barometer29.86 in30.01 in (10:00 pm)29.77 in (12:20 am)
Wind Speed11.6 mph18.4 mph (1:00 pm)
Weather ElementAverage
Visibility3.9 mi
Wind DirectionNE (40.8 °)

Weather ElementTotal
Precipitation---
Heating Degree Days17 (Base 65)
Averaged from 66 records on April 6, 2013
WEATHER CONDITIONS BREAKOUT
WIND DIRECTION BREAKOUT
WEATHER BY HOUR - APRIL 6, 2013
[ °C ]   °F
Local TimeTemperatureDewpointHumidityBarometerVisibilityWind DirectionWind SpeedGust SpeedPrecipitationEventsConditions
12:20 AM46.4 °F37.4 °F71 %29.77 in3.7 miNE (40°)9.2 mphMostly Cloudy
12:50 AM46.4 °F37.4 °F71 %29.77 in3.1 miNE (40°)10.4 mphMostly Cloudy
1:00 AM45.0 °F38.0 °F68 %29.80 inNE (40°)10.4 mph
1:20 AM44.6 °F39.2 °F81 %29.77 in3.1 miNE (40°)9.2 mphMostly Cloudy
1:50 AM44.6 °F39.2 °F81 %29.77 in3.1 miNE (50°)6.9 mphOvercast
2:00 AM44.0 °F38.0 °F71 %29.80 in3.0 miNE (40°)9.2 mphMist
2:20 AM44.6 °F37.4 °F76 %29.77 in2.8 miNE (50°)10.4 mphOvercast
2:50 AM44.6 °F37.4 °F76 %29.77 in2.8 miNE (50°)10.4 mphOvercast
3:00 AM44.0 °F36.0 °F66 %29.80 inNE (50°)10.4 mph
3:50 AM42.8 °F37.4 °F81 %29.77 in2.8 miNE (50°)9.2 mphMostly Cloudy
4:00 AM43.0 °F35.0 °F66 %29.81 inNE (40°)9.2 mph
4:20 AM42.8 °F35.6 °F76 %29.77 in2.8 miNE (40°)9.2 mphMostly Cloudy
4:50 AM42.8 °F35.6 °F76 %29.77 in2.8 miNE (40°)6.9 mphMostly Cloudy
5:20 AM42.8 °F35.6 °F76 %29.77 in2.8 miNE (40°)6.9 mphMostly Cloudy
5:50 AM42.8 °F35.6 °F76 %29.77 in2.8 miNNE (30°)9.2 mphHaze
6:00 AM43.0 °F34.0 °F60 %29.82 inNE (40°)10.4 mph
6:20 AM42.8 °F33.8 °F70 %29.80 in2.8 miNE (50°)9.2 mphHaze
6:50 AM42.8 °F33.8 °F70 %29.80 inNNE (30°)8.1 mphHaze
7:00 AM42.0 °F33.0 °F62 %29.83 inNNE (30°)8.1 mph
7:20 AM42.8 °F33.8 °F70 %29.80 inNE (50°)8.1 mphMostly Cloudy
7:50 AM42.8 °F33.8 °F70 %29.80 inNNE (30°)6.9 mphMostly Cloudy
8:00 AM43.0 °F33.0 °F59 %29.85 in2.0 miNNE (30°)9.2 mphMist
8:20 AM42.8 °F33.8 °F70 %29.83 inNE (40°)8.1 mphOvercast
8:50 AM42.8 °F33.8 °F70 %29.83 in3.1 miNNE (30°)5.8 mphHaze
9:00 AM43.0 °F33.0 °F56 %29.87 inNNE (20°)5.8 mph
9:20 AM42.8 °F33.8 °F70 %29.83 in3.1 miNE (40°)6.9 mphHaze
9:50 AM44.6 °F33.8 °F66 %29.83 in3.1 miNNE (30°)5.8 mphHaze
10:00 AM44.0 °F34.0 °F58 %29.88 inNNE (30°)6.9 mph
10:20 AM44.6 °F35.6 °F71 %29.86 in3.1 miNE (40°)8.1 mphHaze
10:50 AM46.4 °F33.8 °F62 %29.86 in3.1 miNNE (30°)9.2 mphHaze
11:20 AM46.4 °F33.8 °F62 %29.86 in3.7 miENE (60°)10.4 mphMostly Cloudy
11:50 AM46.4 °F33.8 °F62 %29.86 in3.7 miNE (50°)15.0 mphScattered Clouds
12:00 PM48.0 °F33.0 °F44 %29.89 inNE (40°)15.0 mph
12:20 PM48.2 °F33.8 °F58 %29.86 in3.7 miNE (40°)15.0 mphScattered Clouds
12:50 PM50.0 °F33.8 °F54 %29.86 in3.7 miNE (40°)16.1 mphScattered Clouds
1:00 PM50.0 °F33.0 °F40 %29.88 inNE (40°)18.4 mph
1:20 PM50.0 °F33.8 °F54 %29.86 in3.7 miNE (40°)17.3 mphScattered Clouds
1:50 PM50.0 °F35.6 °F58 %29.86 in3.7 miNE (40°)16.1 mphScattered Clouds
2:00 PM51.0 °F33.0 °F38 %29.87 in4.0 miNE (40°)12.7 mphHaze
2:20 PM51.8 °F33.8 °F50 %29.86 in4.3 miENE (60°)11.5 mphScattered Clouds
2:50 PM53.6 °F33.8 °F47 %29.86 in5.0 miENE (60°)13.8 mphMostly Cloudy
3:00 PM53.0 °F33.0 °F35 %29.85 inNE (50°)15.0 mph
3:20 PM53.6 °F33.8 °F47 %29.86 in5.0 miNE (50°)15.0 mphScattered Clouds
3:50 PM53.6 °F33.8 °F47 %29.83 in5.0 miNE (50°)13.8 mphMostly Cloudy
4:00 PM54.0 °F33.0 °F32 %29.85 inNE (40°)15.0 mph
4:20 PM53.6 °F33.8 °F47 %29.86 in5.0 miNE (40°)15.0 mphMostly Cloudy
4:50 PM53.6 °F32.0 °F44 %29.86 in5.0 miNE (40°)12.7 mphMostly Cloudy
5:20 PM53.6 °F33.8 °F47 %29.86 in5.0 miNE (50°)12.7 mphMostly Cloudy
5:50 PM53.6 °F33.8 °F47 %29.86 in5.0 miNE (50°)13.8 mphMostly Cloudy
6:00 PM52.0 °F33.0 °F36 %29.88 inNE (40°)13.8 mph
6:20 PM51.8 °F33.8 °F50 %29.89 in5.0 miNE (40°)12.7 mphMostly Cloudy
6:50 PM51.8 °F33.8 °F50 %29.89 in5.0 miNE (40°)12.7 mphMostly Cloudy
7:00 PM51.0 °F34.0 °F40 %29.90 inNNE (30°)15.0 mph
7:20 PM50.0 °F33.8 °F54 %29.89 in5.0 miNE (40°)12.7 mphMostly Cloudy
7:50 PM50.0 °F33.8 °F54 %29.92 in4.3 miNNE (20°)12.7 mphMostly Cloudy
8:00 PM49.0 °F32.0 °F40 %29.93 in4.0 miNNE (20°)12.7 mphHaze
8:20 PM50.0 °F33.8 °F54 %29.92 in4.3 miNNE (30°)12.7 mphMostly Cloudy
8:50 PM48.2 °F33.8 °F58 %29.95 in4.3 miNE (40°)13.8 mphMostly Cloudy
9:00 PM47.0 °F33.0 °F45 %29.97 inNE (40°)17.3 mph
9:20 PM46.4 °F33.8 °F62 %29.95 in5.0 miNE (40°)15.0 mphMostly Cloudy
9:50 PM46.4 °F33.8 °F62 %29.98 in5.0 miNE (50°)13.8 mphMostly Cloudy
10:00 PM45.0 °F33.0 °F53 %30.01 inNE (50°)15.0 mph
10:20 PM44.6 °F33.8 °F66 %29.98 in5.0 miNE (50°)12.7 mphMostly Cloudy
10:50 PM44.6 °F32.0 °F61 %29.98 in5.0 miNE (40°)13.8 mphMostly Cloudy
11:20 PM44.6 °F32.0 °F61 %30.01 in5.0 miNE (40°)16.1 mphMostly Cloudy
11:50 PM44.6 °F32.0 °F61 %30.01 in5.0 miNE (40°)15.0 mphMostly Cloudy
Hourly data recorded from LSGG, located miles away from Geneva, Switzerland







STORIES FROM OUR PARTNERS